This is the latest recevied weather packets stored in our database for station/object E20YUC-1. If no packets are shown the sender has not sent any weather packets the latest 10 day(s).
| Time | Temp. | Humidity | Pressure | Rain* | Wind** | Luminosity | Snow |
|---|---|---|---|---|---|---|---|
| 1777751370 | 30.56° C | 74% | 995.6 hPa | 0 mm | 0 m/s | - | - |
| 1777751071 | 30.56° C | 74% | 995.6 hPa | 0 mm | 0 m/s | - | - |
| 1777750776 | 30.56° C | 73% | 995.7 hPa | 0 mm | 0 m/s | - | - |
| 1777750469 | 31.11° C | 73% | 995.5 hPa | 0 mm | 0 m/s | - | - |
| 1777749869 | 31.11° C | 72% | 995.7 hPa | 0 mm | 0 m/s | - | - |
| 1777749571 | 0.56° C | 72% | 995.7 hPa | 0 mm | 0 m/s | - | - |
| 1777748969 | 31.11° C | 72% | 995.8 hPa | 0 mm | 0 m/s | - | - |
| 1777748369 | 31.11° C | 71% | 995.8 hPa | 0 mm | 0 m/s | - | - |
| 1777748071 | 31.11° C | 71% | 995.8 hPa | 0 mm | 0 m/s | - | - |
| 1777747769 | 31.11° C | 72% | 995.7 hPa | 0 mm | 0 m/s | - | - |
| 1777747169 | 31.11° C | 71% | 996.1 hPa | 0 mm | 0 m/s | - | - |
| 1777746869 | 31.67° C | 71% | 996.1 hPa | 0 mm | 0 m/s | - | - |
| 1777746571 | 31.67° C | 71% | 996.1 hPa | 0 mm | 0 m/s | - | - |
| 1777746269 | 31.67° C | 71% | 995.9 hPa | 0 mm | 0 m/s | - | - |
| 1777745669 | 31.67° C | 70% | 996 hPa | 0 mm | 0 m/s | - | - |
| 1777745369 | 31.67° C | 70% | 995.9 hPa | 0 mm | 0 m/s | - | - |
| 1777745070 | 31.67° C | 69% | 996 hPa | 0 mm | 0 m/s | - | - |
| 1777744468 | 31.67° C | 69% | 995.9 hPa | 0 mm | 0 m/s | - | - |
| 1777743868 | 32.22° C | 68% | 996.1 hPa | 0 mm | 0 m/s | - | - |
| 1777743570 | 32.22° C | 67% | 996.1 hPa | 0 mm | 0 m/s | - | - |
| 1777743268 | 32.22° C | 67% | 996.3 hPa | 0 mm | 0 m/s | - | - |
| 1777742968 | 32.22° C | 67% | 996.4 hPa | 0 mm | 0 m/s | - | - |
| 1777742368 | 32.22° C | 66% | 996.5 hPa | 0 mm | 0 m/s | - | - |
| 1777742070 | 32.22° C | 66% | 3113 hPa | 0 mm | 0 m/s | - | - |
| 1777741768 | 32.22° C | 66% | 996.6 hPa | 0 mm | 0 m/s | - | - |
* Rain latest hour (hover to see other rain measurements)
** Current wind speed in m/s (hover to see current wind gust speed)